sat.trackr.live / text

‹ back to catalog

STARLINK-3327

NORAD 50819 · 2022-001S

PAYLOAD ACTIVE UNKNOWN

§ Identity

Operator
Country
US
Launch date
2022-01-06
Launch site
AFETR
Launch vehicle
Mass (kg)
RCS (m²)

Purposes: comms

External: N2YO · Heavens-Above · Gunter

§ Orbital elements

Epoch: 2026-09-19T22:25:56.485056Z

Period
93.85 min
Inclination
53.1602°
Eccentricity
0.0000940
Mean motion
15.34384786 rev/d
Perigee alt
462.1 km
Apogee alt
463.4 km
Semi-major
6,840.9 km
B*
1.5270e-5
RAAN
4.7205°
Arg perigee
83.5884°
Mean anomaly
276.5225°
Rev number
25,990

§ Raw data

STARLINK-33271 50819U 22001S   26262.93468154  .00000140  00000+0  15270-4 0  99992 50819  53.1602   4.7205 0000940  83.5884 276.5225 15.34384786259902

JSON: /api/v1/satellites/50819 · /tle

For live sub-satellite position, see the globe view (requires WebGL).

§ Visibility from observer

Set your observer location to see the next 7 days of passes ≥ 10°. The values pass through the URL so the page stays shareable.

No JS? Fill the form by hand. The geolocation button needs JavaScript.